TimeMST,TemperatureF,Dew PointF,Humidity,Sea Level PressureIn,VisibilityMPH,Wind Direction,Wind SpeedMPH,Gust SpeedMPH,PrecipitationIn,Events,Conditions,WindDirDegrees,DateUTC
12:52 AM,32.0,30.9,96,30.12,0.2,Calm,Calm,-,N/A,Fog,Fog,0,2013-01-26 07:52:00
1:52 AM,32.0,30.9,96,30.09,0.2,NNE,6.9,-,N/A,Fog,Fog,20,2013-01-26 08:52:00
2:52 AM,30.9,30.0,96,30.07,0.2,NNE,5.8,-,N/A,Fog,Light Freezing Fog,30,2013-01-26 09:52:00
3:52 AM,30.9,30.0,96,30.05,0.2,North,4.6,-,N/A,Fog,Light Freezing Fog,10,2013-01-26 10:52:00
4:52 AM,30.9,28.9,92,30.03,0.5,NNE,5.8,-,N/A,Fog,Light Freezing Fog,30,2013-01-26 11:52:00
5:52 AM,30.9,30.0,96,30.03,0.5,Calm,Calm,-,N/A,Fog,Light Freezing Fog,0,2013-01-26 12:52:00
6:13 AM,30.2,28.4,93,30.00,1.0,Calm,Calm,-,0.00,Rain,Light Freezing Rain,0,2013-01-26 13:13:00
6:25 AM,30.2,30.2,100,30.01,1.8,Calm,Calm,-,0.00,Rain,Light Freezing Rain,0,2013-01-26 13:25:00
6:40 AM,30.2,30.2,100,30.00,4.0,Calm,Calm,-,0.01,Rain,Light Freezing Rain,0,2013-01-26 13:40:00
6:52 AM,30.9,30.0,96,30.03,5.0,Calm,Calm,-,0.02,Rain,Light Freezing Rain,0,2013-01-26 13:52:00
7:24 AM,30.2,30.2,100,29.99,5.0,Calm,Calm,-,0.04,Rain,Light Freezing Rain,0,2013-01-26 14:24:00
7:52 AM,32.0,30.0,92,30.01,5.0,NNE,3.5,-,0.07,Rain,Light Freezing Rain,20,2013-01-26 14:52:00
8:12 AM,32.0,30.2,93,29.98,4.0,NNE,3.5,-,0.01,,Overcast,20,2013-01-26 15:12:00
8:52 AM,32.0,30.0,92,30.00,5.0,North,4.6,-,0.04,,Overcast,10,2013-01-26 15:52:00
9:52 AM,32.0,30.9,96,29.99,6.0,North,5.8,-,0.04,,Overcast,10,2013-01-26 16:52:00
10:52 AM,32.0,30.9,96,29.99,10.0,Calm,Calm,-,0.02,,Overcast,0,2013-01-26 17:52:00
11:18 AM,32.0,32.0,100,29.96,10.0,Calm,Calm,-,0.00,,Overcast,0,2013-01-26 18:18:00
11:58 AM,33.8,32.0,93,29.93,4.0,Calm,Calm,-,0.00,Rain,Light Rain,0,2013-01-26 18:58:00
12:13 PM,33.8,32.0,93,29.92,5.0,Calm,Calm,-,0.00,Rain,Light Rain,0,2013-01-26 19:13:00
12:35 PM,33.8,33.8,100,29.91,8.0,Calm,Calm,-,0.01,Rain,Light Rain,0,2013-01-26 19:35:00
12:52 PM,34.0,33.1,96,29.92,6.0,Calm,Calm,-,0.01,Rain,Light Rain,0,2013-01-26 19:52:00
1:15 PM,35.6,33.8,93,29.88,5.0,Calm,Calm,-,0.01,Rain,Light Rain,0,2013-01-26 20:15:00
1:33 PM,35.6,33.8,93,29.87,4.0,North,3.5,-,0.01,Rain,Light Rain,350,2013-01-26 20:33:00
1:52 PM,35.1,33.1,92,29.88,4.0,North,6.9,-,0.02,Rain,Light Rain,360,2013-01-26 20:52:00
2:52 PM,34.0,33.1,96,29.89,5.0,NNE,6.9,-,0.02,Rain,Light Rain,30,2013-01-26 21:52:00
3:26 PM,33.8,33.8,100,29.87,2.5,NNE,5.8,-,0.02,Rain,Light Rain,30,2013-01-26 22:26:00
3:36 PM,33.8,33.8,100,29.87,4.0,NNE,6.9,-,0.03,Rain,Light Rain,20,2013-01-26 22:36:00
3:57 PM,35.6,33.8,93,29.87,9.0,NNE,6.9,-,0.00,Rain,Light Rain,20,2013-01-26 22:57:00
4:03 PM,33.8,33.8,100,29.86,9.0,NNE,6.9,-,0.00,Rain,Light Rain,20,2013-01-26 23:03:00
4:38 PM,33.8,32.0,93,29.85,6.0,North,-9999.0,-,0.00,Rain,Light Rain,0,2013-01-26 23:38:00
4:52 PM,34.0,32.0,92,29.87,6.0,North,-9999.0,-,0.01,Rain,Light Rain,0,2013-01-26 23:52:00
4:59 PM,33.8,32.0,93,29.85,7.0,North,-9999.0,-,0.00,Rain,Light Rain,0,2013-01-26 23:59:00
5:52 PM,33.1,32.0,96,29.88,3.0,North,-9999.0,-,0.01,Rain,Light Rain,0,2013-01-27 00:52:00
5:55 PM,33.8,32.0,93,29.85,2.5,Calm,Calm,-,0.00,Rain,Light Rain,0,2013-01-27 00:55:00
6:01 PM,33.8,32.0,93,29.85,1.2,North,-9999.0,-,0.00,Rain,Light Rain,0,2013-01-27 01:01:00
6:15 PM,33.8,32.0,93,29.86,1.0,North,-9999.0,-,0.00,,Overcast,0,2013-01-27 01:15:00
6:26 PM,33.8,32.0,93,29.86,1.8,North,-9999.0,-,0.00,,Overcast,0,2013-01-27 01:26:00
6:33 PM,33.8,33.8,100,29.86,1.5,North,-9999.0,-,0.00,,Overcast,0,2013-01-27 01:33:00
6:38 PM,33.8,33.8,100,29.87,2.0,North,-9999.0,-,0.00,,Overcast,0,2013-01-27 01:38:00
6:46 PM,33.8,32.0,93,29.87,4.0,North,-9999.0,-,0.00,,Overcast,0,2013-01-27 01:46:00
6:52 PM,33.1,32.0,96,29.90,5.0,North,-9999.0,-,0.00,,Overcast,0,2013-01-27 01:52:00
7:06 PM,33.8,32.0,93,29.88,7.0,North,-9999.0,-,0.00,Rain,Light Rain,0,2013-01-27 02:06:00
7:16 PM,33.8,30.2,87,29.88,1.5,North,-9999.0,-,0.00,,Overcast,0,2013-01-27 02:16:00
7:27 PM,33.8,32.0,93,29.88,1.5,North,-9999.0,-,0.00,,Overcast,0,2013-01-27 02:27:00
7:35 PM,33.8,32.0,93,29.88,6.0,North,-9999.0,-,0.00,,Overcast,0,2013-01-27 02:35:00
7:52 PM,33.1,32.0,96,29.90,5.0,North,-9999.0,-,0.00,,Overcast,0,2013-01-27 02:52:00
8:11 PM,33.8,32.0,93,29.88,5.0,North,-9999.0,-,N/A,,Overcast,0,2013-01-27 03:11:00
8:19 PM,33.8,32.0,93,29.88,6.0,North,-9999.0,-,N/A,,Overcast,0,2013-01-27 03:19:00
8:52 PM,33.1,32.0,96,29.90,7.0,North,-9999.0,-,N/A,,Overcast,0,2013-01-27 03:52:00
9:31 PM,33.8,32.0,93,29.88,2.5,North,-9999.0,-,N/A,,Overcast,0,2013-01-27 04:31:00
9:33 PM,33.8,32.0,93,29.88,3.0,North,-9999.0,-,N/A,,Overcast,0,2013-01-27 04:33:00
9:52 PM,34.0,32.0,92,29.90,6.0,SSW,11.5,-,N/A,,Overcast,200,2013-01-27 04:52:00
10:04 PM,33.8,32.0,93,29.87,1.2,SSW,11.5,-,N/A,,Overcast,210,2013-01-27 05:04:00
10:30 PM,35.6,33.8,93,29.88,4.0,SSW,12.7,-,N/A,,Overcast,210,2013-01-27 05:30:00
10:52 PM,35.1,34.0,96,29.90,4.0,SSW,12.7,-,N/A,,Overcast,210,2013-01-27 05:52:00
11:19 PM,35.6,33.8,93,29.88,9.0,SSW,13.8,-,N/A,,Overcast,210,2013-01-27 06:19:00
11:52 PM,36.0,34.0,93,29.89,10.0,SSW,15.0,-,N/A,,Overcast,210,2013-01-27 06:52:00